Showing default

QIANFAN-23, 61556

Orbit data source: Space-Track

QIANFAN-23, 61556 is a Chinese payload satellite in LEO that was launched on Tue, 15 Oct 2024 UTC via a CHANG ZHENG 6A launch vehicle from the Taiyaun Space Center, China (TSC). Payload-class satellites include a variety of spacecraft equipped with specific instruments for various scientific and technological missions. These include communications satellites like Starlink; space stations such as the ISS; scientific satellites like the Hubble; Earth observation satellites from companies like Planet Labs, Umbra, and HawkEye 360; GPS; miniature CubeSats for education and research; and military/defense satellites.

Loading next visibility...
Identifier
61556, 2024-185E
Orbit
LEO
Country
Flag of CNCN / PRC
Related business
Manufacturer
GESIH/SECM
Mission
Partially operational Commercial Communications
Bus & Motor
QIANFAN, Unknown motor
Mass
267 kg wet, ~267 kg dry
Launch date (UTC)
Icon of a cake. It is the launch day of the satellite!2024-10-15 (1 year ago)
Launch vehicle
CHANG ZHENG 6A
Launch site
Taiyaun Space Center, China (TSC)
Object type
Payload
Rocket body
Debris
Shape & HBR
Box + 1 Pan, 5.0 m
Radar Cross Section
13.200 m², Large (>1 m²)

Expand to show TLE details & history
Last TLE update: 19 hours ago

TLE from 19 hours ago
0 QIANFAN-23
1 61556U 24185E   25287.91771316  .00000936  00000-0  46572-3 0  9997
2 61556  88.9761  84.5149 0009273 135.5368 224.6566 14.16194283 61420
Epoch: 2025-10-14T22:01Z
TLE epoch observation values (Epoch: 2025-10-14T22:01:30.417Z)
Latitude
0.00003°
Longitude
90.43891°
Altitude
846.064 km
Speed
7.427 km/s
True Right ascension
05h 38m 03s
True Declination
0° 00' 00"
Sunlit
Object was in daylight at epoch
Visualization orbit readout
Latitude
Unknown
Longitude
Unknown
Altitude
Unknown
Speed
Unknown
Apparent Right ascension
Unknown
Apparent Declination
Unknown
Sunlit
N/A
Visualization observer readout
Local Sidereal Time
11:53:23
Azimuth
Unknown
Elevation
Unknown
Doppler factor
Unknown
Orbital elements
Apogee altitude
841.898 km
Perigee altitude
828.52 km
Semi-major axis
7,213.346 km
Eccentricity
0.00093
Inclination
88.9761°
RAAN
84.5149°
Arg. of periapsis
135.5368°
True anomaly
224.58198°
Mean anomaly
224.6566°
Eccentric anomaly
224.61928°
Mean motion
3.54273 °/min
Orbital period
101.62 mins
BSTAR
0.00046572
Loading maneuver chart data...
Computing Atmospheric mass density...
Loading historical data...
Loading historical data...
Loading historical data...
Loading historical data...
Loading historical data...
Loading historical data...
Loading historical data...

Documentation

Showing up to 5 results
|